Easter Island, Chile
Current Conditions -  °F | °C
As of 10:00 AM on Wednesday 26 Nov 2014 (Local Time) from SCIP Reporting Station
Broken Clouds Broken Clouds  
Wind Chill: 20°   Ceiling: 2000
Heat Index: 20°   Visibility: 6mi
Dew Point: 17°   Wind: 15mph
Humidity: 83%   Direction: 90°E
Pressure: 30.09"   Gusts: NA
Location:  27.12°S, 109.37°W
Report Text: SCIP 261600Z 09013KT 9999 BKN020 BKN030 20/17 Q1019 NOSIG
Loading
Personal Weather Stations






























Interactive Weather Map New forecast layout! Learn more

10-Day Weather Forecast

Advertisements
Track Severe Weather on mobile